When you browse on this site, cookies collect data to enhance your experience and personalize the content and advertising you see.
Visit our Privacy Policy to learn more. By continuing to use the site, you agree to this use of cookies and data.
  • In Lithuania
  • List of Countries
  • For 7 days
  • Water Temperature
  • Weather Map
  • Weather Widgets
  • user-avatar
    Login

    Hourly Weather Stepanakert

    Today, 15 October, Tuesday

    Time Temperature Precipitation Wind Pressure Humidity
    00:00 +14°C° 0 mm 1 mps 699 mmHg 60%
    01:00 +14°C° 0 mm 1 mps 699 mmHg 60%
    02:00 +13°C° 0 mm 1 mps 699 mmHg 60%
    03:00 +13°C° 0 mm 1 mps 698 mmHg 60%
    04:00 +13°C° 0 mm 1 mps 698 mmHg 60%
    05:00 +13°C° 0 mm 1 mps 698 mmHg 60%
    06:00 +12°C° 0 mm 1 mps 698 mmHg 60%
    07:00 +14°C° 0 mm 1 mps 698 mmHg 54%
    08:00 +18°C° 0 mm 1 mps 699 mmHg 48%
    09:00 +20°C° 0 mm 1 mps 699 mmHg 42%
    10:00 +21°C° 0 mm 1 mps 699 mmHg 41%
    11:00 +21°C° 0 mm 2 mps 699 mmHg 40%
    12:00 +23°C° 0 mm 2 mps 698 mmHg 39%
    13:00 +23°C° 0 mm 2 mps 698 mmHg 40%
    14:00 +23°C° 0 mm 2 mps 697 mmHg 42%
    15:00 +23°C° 0 mm 2 mps 697 mmHg 43%
    16:00 +21°C° 0 mm 1 mps 696 mmHg 48%
    17:00 +19°C° 0 mm 1 mps 696 mmHg 54%
    18:00 +18°C° 0 mm 1 mps 696 mmHg 59%
    19:00 +18°C° 0 mm 1 mps 696 mmHg 58%
    20:00 +16°C° 0 mm 1 mps 696 mmHg 56%
    21:00 +16°C° 0 mm 1 mps 696 mmHg 54%
    22:00 +16°C° 0 mm 1 mps 696 mmHg 53%
    23:00 +16°C° 0 mm 1 mps 696 mmHg 52%

    Tomorrow, 16 October, Wednesday

    Time Temperature Precipitation Wind Pressure Humidity
    00:00 +16°C° 0 mm 1 mps 696 mmHg 51%
    01:00 +16°C° 0 mm 1 mps 696 mmHg 50%
    02:00 +16°C° 0 mm 1 mps 696 mmHg 49%
    03:00 +15°C° 0 mm 1 mps 696 mmHg 48%
    04:00 +15°C° 0 mm 1 mps 695 mmHg 46%
    05:00 +15°C° 0 mm 1 mps 695 mmHg 45%
    06:00 +15°C° 0 mm 1 mps 695 mmHg 44%
    07:00 +18°C° 0 mm 1 mps 696 mmHg 40%
    08:00 +20°C° 0 mm 1 mps 696 mmHg 36%
    09:00 +23°C° 0 mm 1 mps 697 mmHg 33%
    10:00 +23°C° 0 mm 1 mps 697 mmHg 33%
    11:00 +24°C° 0 mm 2 mps 697 mmHg 33%
    12:00 +25°C° 0 mm 2 mps 696 mmHg 32%
    13:00 +25°C° 0 mm 2 mps 696 mmHg 34%
    14:00 +25°C° 0 mm 2 mps 696 mmHg 36%
    15:00 +25°C° 0 mm 2 mps 695 mmHg 38%
    16:00 +23°C° 0 mm 1 mps 695 mmHg 44%
    17:00 +21°C° 0 mm 1 mps 695 mmHg 50%
    18:00 +19°C° 0 mm 1 mps 695 mmHg 55%
    19:00 +19°C° 0 mm 1 mps 695 mmHg 54%
    20:00 +19°C° 0 mm 1 mps 695 mmHg 52%
    21:00 +18°C° 0 mm 1 mps 695 mmHg 51%
    22:00 +18°C° 0 mm 1 mps 696 mmHg 51%
    23:00 +16°C° 0 mm 1 mps 696 mmHg 52%

    Day after tomorrow, 17 October, Thursday

    Time Temperature Precipitation Wind Pressure Humidity
    00:00 +16°C° 0 mm 1 mps 696 mmHg 52%
    01:00 +16°C° 0 mm 1 mps 696 mmHg 52%
    02:00 +15°C° 0 mm 1 mps 696 mmHg 52%
    03:00 +15°C° 0 mm 1 mps 696 mmHg 52%
    04:00 +15°C° 0 mm 1 mps 696 mmHg 53%
    05:00 +14°C° 0 mm 1 mps 696 mmHg 53%
    06:00 +14°C° 0 mm 1 mps 696 mmHg 53%
    07:00 +16°C° 0 mm 1 mps 696 mmHg 51%
    08:00 +19°C° 0 mm 1 mps 697 mmHg 48%
    09:00 +20°C° 0 mm 1 mps 697 mmHg 46%
    10:00 +21°C° 0 mm 1 mps 697 mmHg 47%
    11:00 +21°C° 0 mm 2 mps 697 mmHg 47%
    12:00 +21°C° 0 mm 2 mps 697 mmHg 47%
    13:00 +21°C° 0 mm 2 mps 696 mmHg 49%
    14:00 +21°C° 0 mm 2 mps 696 mmHg 51%
    15:00 +21°C° 0 mm 2 mps 695 mmHg 52%
    16:00 +21°C° 0 mm 1 mps 695 mmHg 58%
    17:00 +19°C° 0 mm 1 mps 695 mmHg 63%
    18:00 +16°C° 0 mm 0 mps 695 mmHg 68%
    19:00 +16°C° 0 mm 0 mps 695 mmHg 67%
    20:00 +16°C° 0 mm 1 mps 695 mmHg 66%
    21:00 +16°C° 0 mm 1 mps 695 mmHg 65%
    22:00 +16°C° 0 mm 1 mps 695 mmHg 63%
    23:00 +16°C° 0 mm 1 mps 695 mmHg 61%

    18 October, Friday

    Time Temperature Precipitation Wind Pressure Humidity
    00:00 +15°C° 0 mm 1 mps 695 mmHg 59%
    01:00 +15°C° 0 mm 1 mps 694 mmHg 57%
    02:00 +15°C° 0 mm 1 mps 694 mmHg 55%
    03:00 +15°C° 0 mm 1 mps 694 mmHg 53%
    04:00 +15°C° 0 mm 1 mps 694 mmHg 51%
    05:00 +15°C° 0 mm 1 mps 694 mmHg 48%
    06:00 +15°C° 0 mm 1 mps 694 mmHg 45%
    07:00 +18°C° 0 mm 1 mps 694 mmHg 42%
    08:00 +20°C° 0 mm 1 mps 695 mmHg 38%
    09:00 +22°C° 0 mm 1 mps 695 mmHg 35%
    10:00 +23°C° 0 mm 1 mps 695 mmHg 35%
    11:00 +24°C° 0 mm 2 mps 695 mmHg 35%
    12:00 +25°C° 0 mm 2 mps 695 mmHg 36%
    13:00 +25°C° 0 mm 2 mps 694 mmHg 38%
    14:00 +25°C° 0 mm 2 mps 694 mmHg 40%
    15:00 +25°C° 0 mm 2 mps 693 mmHg 42%
    16:00 +23°C° 0 mm 1 mps 693 mmHg 47%
    17:00 +22°C° 0 mm 1 mps 693 mmHg 52%
    18:00 +20°C° 0 mm 1 mps 693 mmHg 57%
    19:00 +20°C° 0 mm 1 mps 693 mmHg 57%
    20:00 +19°C° 0 mm 1 mps 693 mmHg 56%
    21:00 +19°C° 0 mm 1 mps 693 mmHg 55%
    22:00 +19°C° 0 mm 1 mps 693 mmHg 55%
    23:00 +18°C° 0 mm 1 mps 693 mmHg 55%

    19 October, Saturday

    Time Temperature Precipitation Wind Pressure Humidity
    00:00 +18°C° 0 mm 1 mps 693 mmHg 54%
    01:00 +18°C° 0 mm 1 mps 693 mmHg 55%
    02:00 +16°C° 0 mm 1 mps 693 mmHg 55%
    03:00 +15°C° 0 mm 0 mps 693 mmHg 56%
    04:00 +16°C° 0 mm 1 mps 693 mmHg 55%
    05:00 +16°C° 0 mm 1 mps 694 mmHg 55%
    06:00 +16°C° 0 mm 1 mps 694 mmHg 55%
    07:00 +19°C° 0 mm 1 mps 694 mmHg 51%
    08:00 +20°C° 0 mm 1 mps 695 mmHg 48%
    09:00 +22°C° 0 mm 1 mps 695 mmHg 45%
    10:00 +23°C° 0 mm 1 mps 695 mmHg 45%
    11:00 +23°C° 0 mm 2 mps 695 mmHg 45%
    12:00 +24°C° 0 mm 2 mps 695 mmHg 46%
    13:00 +24°C° 0 mm 2 mps 695 mmHg 47%
    14:00 +23°C° 0 mm 2 mps 695 mmHg 49%
    15:00 +23°C° 0 mm 2 mps 694 mmHg 50%
    16:00 +21°C° 0 mm 2 mps 694 mmHg 56%
    17:00 +20°C° 0 mm 1 mps 694 mmHg 61%
    18:00 +19°C° 0 mm 1 mps 694 mmHg 67%
    19:00 +18°C° 0 mm 1 mps 694 mmHg 68%
    20:00 +18°C° 0 mm 1 mps 694 mmHg 70%
    21:00 +16°C° 0 mm 1 mps 695 mmHg 72%
    22:00 +16°C° 0 mm 1 mps 695 mmHg 71%
    23:00 +15°C° 0 mm 0 mps 695 mmHg 70%

    20 October, Sunday

    Time Temperature Precipitation Wind Pressure Humidity
    00:00 +15°C° 0 mm 0 mps 695 mmHg 68%
    01:00 +15°C° 0 mm 0 mps 695 mmHg 70%
    02:00 +15°C° 0 mm 0 mps 695 mmHg 71%
    03:00 +14°C° 0 mm 0 mps 695 mmHg 72%
    04:00 +14°C° 0 mm 0 mps 695 mmHg 73%
    05:00 +13°C° 0 mm 0 mps 695 mmHg 74%
    06:00 +13°C° 0 mm 0 mps 695 mmHg 75%
    07:00 +15°C° 0 mm 0 mps 695 mmHg 67%
    08:00 +18°C° 0 mm 1 mps 695 mmHg 59%
    09:00 +19°C° 0 mm 1 mps 696 mmHg 51%
    10:00 +20°C° 0 mm 1 mps 696 mmHg 48%
    11:00 +20°C° 0 mm 2 mps 695 mmHg 45%
    12:00 +21°C° 0 mm 2 mps 695 mmHg 42%
    13:00 +20°C° 0 mm 2 mps 695 mmHg 44%
    14:00 +20°C° 0 mm 2 mps 694 mmHg 47%
    15:00 +20°C° 0 mm 2 mps 694 mmHg 49%
    16:00 +20°C° 0 mm 1 mps 694 mmHg 55%
    17:00 +18°C° 0 mm 1 mps 694 mmHg 61%
    18:00 +15°C° 0 mm 0 mps 694 mmHg 67%
    19:00 +15°C° 0 mm 0 mps 694 mmHg 70%
    20:00 +15°C° 0 mm 1 mps 694 mmHg 72%
    21:00 +15°C° 0 mm 1 mps 695 mmHg 74%
    22:00 +14°C° 0 mm 0 mps 695 mmHg 75%
    23:00 +14°C° 0 mm 0 mps 695 mmHg 76%
    Show more